• In Austria
  • List of Countries
  • For 7 days
  • Water Temperature
  • Satellite Maps
  • Weather Map
  • News
  • Weather Widgets
  • user-avatar
    Login

    Hourly Weather Gwizd

    Today, 21 June, Thursday

    Time Temperature Precipitation Wind Pressure Humidity
    00:00 +19°C° 0 mm 4 mps 759 mmHg 87%
    01:00 +19°C° 0 mm 4 mps 758 mmHg 88%
    02:00 +18°C° 0 mm 4 mps 758 mmHg 90%
    03:00 +18°C° 0 mm 4 mps 757 mmHg 91%
    04:00 +18°C° 0 mm 4 mps 757 mmHg 92%
    05:00 +19°C° 0 mm 4 mps 756 mmHg 86%
    06:00 +21°C° 0 mm 5 mps 756 mmHg 80%
    07:00 +22°C° 0 mm 5 mps 755 mmHg 74%
    08:00 +24°C° 0.2 mm 6 mps 754 mmHg 68%
    09:00 +26°C° 0.2 mm 7 mps 754 mmHg 61%
    10:00 +27°C° 0.2 mm 7 mps 753 mmHg 55%
    11:00 +23°C° 0.5 mm 8 mps 753 mmHg 65%
    12:00 +21°C° 0.5 mm 8 mps 753 mmHg 75%
    13:00 +17°C° 0.5 mm 8 mps 753 mmHg 86%
    14:00 +16°C° 1 mm 7 mps 753 mmHg 88%
    15:00 +14°C° 1 mm 6 mps 753 mmHg 89%
    16:00 +13°C° 1 mm 6 mps 754 mmHg 91%
    17:00 +11°C° 0.5 mm 6 mps 754 mmHg 90%
    18:00 +11°C° 0.5 mm 7 mps 754 mmHg 90%
    19:00 +11°C° 0.5 mm 8 mps 754 mmHg 89%
    20:00 +10°C° 0.3 mm 8 mps 754 mmHg 88%
    21:00 +10°C° 0.3 mm 9 mps 755 mmHg 88%
    22:00 +8°C° 0.3 mm 9 mps 755 mmHg 87%
    23:00 +8°C° 0.2 mm 9 mps 755 mmHg 86%

    Tomorrow, 22 June, Friday

    Time Temperature Precipitation Wind Pressure Humidity
    00:00 +8°C° 0.2 mm 10 mps 755 mmHg 85%
    01:00 +8°C° 0.2 mm 10 mps 755 mmHg 85%
    02:00 +8°C° 0.3 mm 10 mps 755 mmHg 84%
    03:00 +8°C° 0.3 mm 10 mps 755 mmHg 83%
    04:00 +8°C° 0.3 mm 10 mps 755 mmHg 82%
    05:00 +8°C° 0.4 mm 10 mps 755 mmHg 80%
    06:00 +9°C° 0.4 mm 10 mps 755 mmHg 78%
    07:00 +9°C° 0.4 mm 10 mps 755 mmHg 76%
    08:00 +11°C° 0.6 mm 10 mps 756 mmHg 76%
    09:00 +11°C° 0.6 mm 9 mps 756 mmHg 76%
    10:00 +12°C° 0.6 mm 8 mps 756 mmHg 76%
    11:00 +13°C° 0.4 mm 8 mps 756 mmHg 75%
    12:00 +15°C° 0.4 mm 8 mps 757 mmHg 74%
    13:00 +16°C° 0.4 mm 8 mps 757 mmHg 72%
    14:00 +16°C° 0.2 mm 8 mps 757 mmHg 68%
    15:00 +17°C° 0.2 mm 8 mps 757 mmHg 63%
    16:00 +17°C° 0.2 mm 8 mps 757 mmHg 58%
    17:00 +17°C° 0.1 mm 8 mps 757 mmHg 62%
    18:00 +16°C° 0.1 mm 8 mps 757 mmHg 66%
    19:00 +15°C° 0.1 mm 8 mps 757 mmHg 70%
    20:00 +14°C° 0.1 mm 7 mps 758 mmHg 73%
    21:00 +12°C° 0.1 mm 7 mps 758 mmHg 77%
    22:00 +11°C° 0.1 mm 7 mps 758 mmHg 80%
    23:00 +11°C° 0.2 mm 7 mps 758 mmHg 81%

    Day after tomorrow, 23 June, Saturday

    Time Temperature Precipitation Wind Pressure Humidity
    00:00 +11°C° 0.2 mm 7 mps 758 mmHg 82%
    01:00 +11°C° 0.2 mm 8 mps 757 mmHg 83%
    02:00 +11°C° 0.1 mm 8 mps 757 mmHg 82%
    03:00 +11°C° 0.1 mm 8 mps 757 mmHg 80%
    04:00 +10°C° 0.1 mm 8 mps 757 mmHg 78%
    05:00 +11°C° 0 mm 8 mps 757 mmHg 73%
    06:00 +12°C° 0 mm 9 mps 757 mmHg 69%
    07:00 +13°C° 0 mm 9 mps 757 mmHg 64%
    08:00 +13°C° 0 mm 9 mps 757 mmHg 61%
    09:00 +15°C° 0 mm 9 mps 757 mmHg 59%
    10:00 +16°C° 0 mm 9 mps 757 mmHg 57%
    11:00 +17°C° 0 mm 9 mps 758 mmHg 55%
    12:00 +17°C° 0 mm 9 mps 758 mmHg 54%
    13:00 +18°C° 0 mm 8 mps 758 mmHg 53%
    14:00 +18°C° 0.1 mm 8 mps 758 mmHg 56%
    15:00 +17°C° 0.1 mm 9 mps 758 mmHg 59%
    16:00 +17°C° 0.1 mm 9 mps 758 mmHg 62%
    17:00 +16°C° 0 mm 8 mps 758 mmHg 65%
    18:00 +16°C° 0 mm 8 mps 758 mmHg 67%
    19:00 +15°C° 0 mm 8 mps 759 mmHg 70%
    20:00 +14°C° 0 mm 7 mps 759 mmHg 75%
    21:00 +13°C° 0 mm 6 mps 759 mmHg 80%
    22:00 +12°C° 0 mm 5 mps 759 mmHg 84%
    23:00 +12°C° 0.1 mm 5 mps 759 mmHg 88%

    24 June, Sunday

    Time Temperature Precipitation Wind Pressure Humidity
    00:00 +12°C° 0.1 mm 5 mps 759 mmHg 91%
    01:00 +10°C° 0.1 mm 5 mps 759 mmHg 95%
    02:00 +12°C° 0.1 mm 5 mps 759 mmHg 94%
    03:00 +12°C° 0.1 mm 5 mps 759 mmHg 94%
    04:00 +12°C° 0.1 mm 5 mps 759 mmHg 94%
    05:00 +13°C° 0.2 mm 5 mps 760 mmHg 90%
    06:00 +14°C° 0.2 mm 5 mps 760 mmHg 87%
    07:00 +15°C° 0.2 mm 5 mps 760 mmHg 83%
    08:00 +16°C° 0.1 mm 5 mps 761 mmHg 79%
    09:00 +17°C° 0.1 mm 5 mps 761 mmHg 75%
    10:00 +17°C° 0.1 mm 5 mps 761 mmHg 71%
    11:00 +19°C° 0 mm 6 mps 761 mmHg 67%
    12:00 +19°C° 0 mm 6 mps 761 mmHg 64%
    13:00 +20°C° 0 mm 6 mps 762 mmHg 61%
    14:00 +20°C° 0 mm 6 mps 762 mmHg 61%
    15:00 +20°C° 0 mm 5 mps 762 mmHg 61%
    16:00 +20°C° 0 mm 5 mps 762 mmHg 61%
    17:00 +19°C° 0 mm 5 mps 762 mmHg 65%
    18:00 +18°C° 0 mm 4 mps 762 mmHg 69%
    19:00 +18°C° 0 mm 4 mps 762 mmHg 73%
    20:00 +15°C° 0 mm 4 mps 762 mmHg 79%
    21:00 +14°C° 0 mm 4 mps 762 mmHg 86%
    22:00 +13°C° 0 mm 4 mps 763 mmHg 92%
    23:00 +12°C° 0 mm 4 mps 763 mmHg 93%

    25 June, Monday

    Time Temperature Precipitation Wind Pressure Humidity
    00:00 +12°C° 0 mm 4 mps 763 mmHg 94%
    01:00 +11°C° 0 mm 4 mps 763 mmHg 95%
    02:00 +11°C° 0 mm 4 mps 763 mmHg 95%
    03:00 +11°C° 0 mm 4 mps 763 mmHg 96%
    04:00 +11°C° 0 mm 4 mps 763 mmHg 96%
    05:00 +12°C° 0 mm 4 mps 763 mmHg 90%
    06:00 +14°C° 0 mm 4 mps 763 mmHg 85%
    07:00 +17°C° 0 mm 3 mps 764 mmHg 79%
    08:00 +18°C° 0 mm 3 mps 764 mmHg 73%
    09:00 +20°C° 0 mm 3 mps 764 mmHg 67%
    10:00 +22°C° 0 mm 3 mps 764 mmHg 61%
    11:00 +22°C° 0.1 mm 3 mps 764 mmHg 60%
    12:00 +22°C° 0.1 mm 4 mps 765 mmHg 59%
    13:00 +23°C° 0.1 mm 4 mps 765 mmHg 58%
    14:00 +23°C° 0.1 mm 4 mps 765 mmHg 59%
    15:00 +22°C° 0.1 mm 4 mps 765 mmHg 60%
    16:00 +22°C° 0.1 mm 4 mps 765 mmHg 61%
    17:00 +21°C° 0 mm 3 mps 765 mmHg 64%
    18:00 +20°C° 0 mm 3 mps 765 mmHg 68%
    19:00 +20°C° 0 mm 3 mps 766 mmHg 72%
    20:00 +18°C° 0 mm 2 mps 766 mmHg 77%
    21:00 +16°C° 0 mm 2 mps 766 mmHg 82%
    22:00 +15°C° 0 mm 2 mps 766 mmHg 88%
    23:00 +14°C° 0 mm 2 mps 767 mmHg 88%

    26 June, Tuesday

    Time Temperature Precipitation Wind Pressure Humidity
    00:00 +14°C° 0 mm 2 mps 767 mmHg 89%
    01:00 +14°C° 0 mm 2 mps 767 mmHg 89%
    02:00 +13°C° 0 mm 3 mps 767 mmHg 90%
    03:00 +13°C° 0 mm 3 mps 767 mmHg 90%
    04:00 +13°C° 0 mm 3 mps 767 mmHg 91%
    05:00 +16°C° 0 mm 3 mps 767 mmHg 85%
    06:00 +18°C° 0 mm 4 mps 767 mmHg 79%
    07:00 +19°C° 0 mm 4 mps 767 mmHg 73%
    08:00 +21°C° 0 mm 4 mps 768 mmHg 68%
    09:00 +22°C° 0 mm 4 mps 768 mmHg 63%
    10:00 +25°C° 0 mm 3 mps 768 mmHg 59%
    11:00 +25°C° 0 mm 4 mps 768 mmHg 57%
    12:00 +26°C° 0 mm 4 mps 768 mmHg 55%
    13:00 +26°C° 0 mm 4 mps 768 mmHg 53%
    14:00 +26°C° 0 mm 4 mps 768 mmHg 52%
    15:00 +26°C° 0 mm 4 mps 768 mmHg 51%
    16:00 +26°C° 0 mm 4 mps 768 mmHg 50%
    17:00 +25°C° 0 mm 4 mps 768 mmHg 54%
    18:00 +23°C° 0 mm 4 mps 768 mmHg 58%
    19:00 +22°C° 0 mm 4 mps 768 mmHg 62%
    20:00 +20°C° 0 mm 3 mps 768 mmHg 68%
    21:00 +18°C° 0 mm 3 mps 768 mmHg 75%
    22:00 +16°C° 0 mm 2 mps 769 mmHg 82%
    23:00 +16°C° 0 mm 2 mps 769 mmHg 83%
    Show more